Powrót do katalogu

SL-3 R/B

AktywnyPO
NORAD 13719·ROCKET BODY·🇷🇺 Russia

Wystrzelony Dec 14, 1982 z Plesetsk Cosmodrome

Loading…

Następne Przeloty (najbliższe 24 godziny)

TLE

ŚwieżeSource: Space-Track

Epoka: Sep 14, 2026, 13:18 UTC

1 13719U 82116B   26257.55456725 -.00000026  00000-0 -19650-4 0  9995
2 13719  81.2520 291.7711 0072304  78.9886  73.7358 14.15206020257773

Śledź SL-3 R/B w czasie rzeczywistym z AllMySat

Download on the App Store